User: anonymous   Login
Location: Oshawa
(43.9000°N, 78.8670°W)
Time: 19:42:20
(UTC-04:00)
Language:

Cosmos 1707 Rocket - Orbit

View from above orbital plane
View from above orbital plane
View from above satellite
View from above satellite

Ground track
Ground track

The orbit data is extracted from the following two-line orbital elements,

1 16327U 85113B   16180.79502204  .00000066  00000-0  50257-5 0  9998
2 16327  82.5349  62.7603 0020615  75.1233 351.2952 14.83298691649491
Epoch (UTC): 28 June 2016 19:04:49
Eccentricity: 0.0020615
inclination: 82.5349°
perigee height: 604 km
apogee height: 633 km
right ascension of ascending node: 62.7603°
argument of perigee: 75.1233°
revolutions per day: 14.83298691
mean anomaly at epoch: 351.2952°
orbit number at epoch: 64949

The dashed part of the orbit path shows where the satellite is in the earth's shadow,  

DLR